THY41J KMIA-LTFM

Flight info

Callsign THY41J
Flight time N/A
Altitude 37000
Route FOLZZ3 ALYRA DCT CARPX DCT PRTHR DCT CHIEZ Q161 KALDA Q167 HOFFI DCT BRADD N261B NICSO/M084F390 DCT 48N050W 49N040W 50N030W 51N020W DCT DINIM DCT ELSOX DCT GAPLI/N0482F390 DCT LIZAD/N0485F410 DCT JSY DCT TURDU DCT TADUP DCT TEPRI DCT POGZI DCT GELTA DCT LUVAL DCT BEGAR DCT TRA DCT GAMSA DCT GEDSO DCT LUMUS DCT SOMUN DCT NISVA DCT DEDIN DCT AYTEK
Aircraft A359/H-SADE1E2E3FGHIJ1J3J4J5P2RWXYZ/LB1D1

Departure

Time 2026-05-06 12:09
Airport Miami International Airport (KMIA)

Arrival

Time N/A
Airport İstanbul Airport (LTFM)
Time Latitude Longitude Altitude Speed Heading
2026-05-06 11:46 25.79107 -80.27424 21 ft 0 kts 111°
2026-05-06 11:59 25.79109 -80.27429 21 ft 4 kts 111°
2026-05-06 11:59 25.79118 -80.27458 23 ft 4 kts 109°
2026-05-06 12:00 25.79127 -80.27484 22 ft 1 kts 111°
2026-05-06 12:00 25.79135 -80.27507 24 ft 4 kts 118°
2026-05-06 12:00 25.79146 -80.27517 21 ft 4 kts 177°
2026-05-06 12:00 25.79173 -80.27518 21 ft 3 kts 177°
2026-05-06 12:01 25.79176 -80.27519 21 ft 4 kts 177°
2026-05-06 12:03 25.79142 -80.27516 21 ft 11 kts 180°
2026-05-06 12:03 25.79038 -80.27514 23 ft 17 kts 178°
2026-05-06 12:03 25.78920 -80.27531 23 ft 17 kts 222°
2026-05-06 12:04 25.78883 -80.27664 23 ft 19 kts 261°
2026-05-06 12:04 25.78875 -80.27820 22 ft 21 kts 267°
2026-05-06 12:04 25.78893 -80.27984 25 ft 22 kts 301°
2026-05-06 12:04 25.78971 -80.28141 26 ft 24 kts 299°
2026-05-06 12:05 25.79056 -80.28310 26 ft 27 kts 299°
2026-05-06 12:05 25.79152 -80.28471 25 ft 23 kts 306°
2026-05-06 12:05 25.79237 -80.28630 23 ft 25 kts 299°
2026-05-06 12:05 25.79327 -80.28805 23 ft 27 kts 300°
2026-05-06 12:06 25.79420 -80.28987 23 ft 27 kts 300°
2026-05-06 12:06 25.79515 -80.29175 24 ft 29 kts 299°
2026-05-06 12:06 25.79595 -80.29331 23 ft 14 kts 300°
2026-05-06 12:06 25.79642 -80.29424 21 ft 14 kts 300°
2026-05-06 12:07 25.79693 -80.29524 21 ft 15 kts 299°
2026-05-06 12:07 25.79748 -80.29631 21 ft 17 kts 300°
2026-05-06 12:07 25.79815 -80.29761 20 ft 20 kts 300°
2026-05-06 12:07 25.79884 -80.29897 21 ft 20 kts 299°
2026-05-06 12:08 25.79955 -80.30035 20 ft 21 kts 300°
2026-05-06 12:08 25.80044 -80.30121 20 ft 15 kts 12°
2026-05-06 12:08 25.80076 -80.30016 19 ft 24 kts 87°
2026-05-06 12:08 25.80093 -80.29594 21 ft 83 kts 88°
2026-05-06 12:09 25.80128 -80.28757 26 ft 133 kts 87°
2026-05-06 12:09 25.80176 -80.27564 60 ft 171 kts 88°
2026-05-06 12:09 25.80162 -80.26290 671 ft 161 kts 97°
2026-05-06 12:09 25.79929 -80.25086 1179 ft 163 kts 107°
2026-05-06 12:10 25.79479 -80.23848 1426 ft 182 kts 115°
2026-05-06 12:10 25.78878 -80.22521 1629 ft 202 kts 117°
2026-05-06 12:10 25.78215 -80.21084 1857 ft 220 kts 117°
2026-05-06 12:10 25.77493 -80.19508 2077 ft 239 kts 116°
2026-05-06 12:11 25.77333 -80.19157 2120 ft 244 kts 116°
2026-05-06 12:11 25.76543 -80.17423 2478 ft 256 kts 117°
2026-05-06 12:11 25.75679 -80.15671 3049 ft 261 kts 119°
2026-05-06 12:11 25.74799 -80.13888 3629 ft 265 kts 116°
2026-05-06 12:12 25.74283 -80.11920 4187 ft 268 kts 92°
2026-05-06 12:12 25.74602 -80.09897 4731 ft 270 kts 65°
2026-05-06 12:12 25.75652 -80.08171 5314 ft 272 kts 49°
2026-05-06 12:12 25.76907 -80.06594 5909 ft 274 kts 47°
2026-05-06 12:13 25.78189 -80.05011 6497 ft 277 kts 47°
2026-05-06 12:13 25.79476 -80.03406 7092 ft 280 kts 47°
2026-05-06 12:13 25.80775 -80.01768 7720 ft 284 kts 48°
2026-05-06 12:13 25.82067 -80.00138 8335 ft 287 kts 48°
2026-05-06 12:14 25.83391 -79.98462 8918 ft 290 kts 48°
2026-05-06 12:14 25.84729 -79.96766 9490 ft 293 kts 48°
2026-05-06 12:14 25.86081 -79.95048 10097 ft 296 kts 48°
2026-05-06 12:14 25.87464 -79.93292 10459 ft 309 kts 48°
2026-05-06 12:15 25.88913 -79.91451 10695 ft 325 kts 48°
2026-05-06 12:15 25.90435 -79.89517 10922 ft 339 kts 48°
2026-05-06 12:15 25.92016 -79.87504 11180 ft 353 kts 48°
2026-05-06 12:15 25.93655 -79.85418 11450 ft 364 kts 48°
2026-05-06 12:16 25.95335 -79.83276 11867 ft 369 kts 48°
2026-05-06 12:16 25.97029 -79.81116 12341 ft 372 kts 48°
2026-05-06 12:16 25.98738 -79.78937 12811 ft 375 kts 47°
2026-05-06 12:16 26.00436 -79.76771 13271 ft 378 kts 47°
2026-05-06 12:17 26.01951 -79.74837 13682 ft 380 kts 47°
2026-05-06 12:17 26.03764 -79.72521 14166 ft 382 kts 47°
2026-05-06 12:17 26.04544 -79.71525 14370 ft 383 kts 47°
2026-05-06 12:17 26.06303 -79.69277 14801 ft 386 kts 47°
2026-05-06 12:18 26.08076 -79.67010 15238 ft 388 kts 47°
2026-05-06 12:18 26.09833 -79.64757 15683 ft 391 kts 48°
2026-05-06 12:18 26.11513 -79.62354 16106 ft 394 kts 52°
2026-05-06 12:18 26.13110 -79.59862 16497 ft 397 kts 53°
2026-05-06 12:19 26.14706 -79.57337 16899 ft 399 kts 53°
2026-05-06 12:19 26.16314 -79.54796 17287 ft 402 kts 53°
2026-05-06 12:19 26.17930 -79.52244 17689 ft 404 kts 53°
2026-05-06 12:19 26.19559 -79.49675 18075 ft 407 kts 53°
2026-05-06 12:20 26.21170 -79.47130 18453 ft 409 kts 53°
2026-05-06 12:20 26.22814 -79.44533 18804 ft 411 kts 53°
2026-05-06 12:20 26.24471 -79.41918 19157 ft 414 kts 53°
2026-05-06 12:20 26.26142 -79.39280 19523 ft 417 kts 53°
2026-05-06 12:21 26.27872 -79.36670 19881 ft 418 kts 49°
2026-05-06 12:21 26.29916 -79.34362 20208 ft 418 kts 38°
2026-05-06 12:21 26.32282 -79.32474 20552 ft 419 kts 31°
2026-05-06 12:21 26.34747 -79.30716 20892 ft 421 kts 31°
2026-05-06 12:22 26.37234 -79.28962 21238 ft 424 kts 31°
2026-05-06 12:22 26.39695 -79.27220 21584 ft 426 kts 31°
2026-05-06 12:22 26.42236 -79.25416 21916 ft 428 kts 31°
2026-05-06 12:22 26.44726 -79.23645 22244 ft 431 kts 31°
2026-05-06 12:23 26.47259 -79.21839 22566 ft 432 kts 31°
2026-05-06 12:23 26.49807 -79.20020 22869 ft 435 kts 31°
2026-05-06 12:23 26.52369 -79.18189 23197 ft 437 kts 31°
2026-05-06 12:23 26.54938 -79.16355 23501 ft 439 kts 31°
2026-05-06 12:24 26.57523 -79.14508 23775 ft 441 kts 31°
2026-05-06 12:24 26.60081 -79.12680 24056 ft 443 kts 31°
2026-05-06 12:24 26.62693 -79.10811 24345 ft 445 kts 31°
2026-05-06 12:24 26.65312 -79.08935 24663 ft 447 kts 30°
2026-05-06 12:25 26.67938 -79.07054 24979 ft 449 kts 30°
2026-05-06 12:25 26.70572 -79.05165 25315 ft 450 kts 30°
2026-05-06 12:25 26.73190 -79.03286 25650 ft 453 kts 30°
2026-05-06 12:25 26.75851 -79.01377 26008 ft 454 kts 30°
2026-05-06 12:26 26.78515 -78.99465 26365 ft 456 kts 30°
2026-05-06 12:26 26.81198 -78.97537 26716 ft 458 kts 30°
2026-05-06 12:26 26.83893 -78.95601 27059 ft 460 kts 30°
2026-05-06 12:26 26.86592 -78.93660 27400 ft 462 kts 30°
2026-05-06 12:27 26.89270 -78.91729 27727 ft 464 kts 30°
2026-05-06 12:27 26.91990 -78.89771 28070 ft 465 kts 30°
2026-05-06 12:27 26.94722 -78.87803 28396 ft 467 kts 30°
2026-05-06 12:27 26.97442 -78.85842 28711 ft 469 kts 30°
2026-05-06 12:28 27.00200 -78.83853 29014 ft 471 kts 30°
2026-05-06 12:28 27.02957 -78.81863 29306 ft 473 kts 30°
2026-05-06 12:28 27.05729 -78.79861 29610 ft 474 kts 30°
2026-05-06 12:28 27.08519 -78.77845 29905 ft 476 kts 30°
2026-05-06 12:29 27.11309 -78.75826 30180 ft 478 kts 30°
2026-05-06 12:29 27.14116 -78.73796 30439 ft 480 kts 30°
2026-05-06 12:29 27.16922 -78.71765 30697 ft 481 kts 30°
2026-05-06 12:29 27.19713 -78.69744 30950 ft 483 kts 30°
2026-05-06 12:30 27.22541 -78.67693 31201 ft 484 kts 30°
2026-05-06 12:30 27.25406 -78.65686 31433 ft 484 kts 26°
2026-05-06 12:30 27.28441 -78.64068 31621 ft 482 kts 17°
2026-05-06 12:30 27.31662 -78.63023 31852 ft 479 kts
2026-05-06 12:31 27.34968 -78.62472 32067 ft 479 kts
2026-05-06 12:31 27.38250 -78.62045 32271 ft 480 kts
2026-05-06 12:31 27.41569 -78.61625 32525 ft 480 kts
2026-05-06 12:31 27.44885 -78.61201 32853 ft 478 kts
2026-05-06 12:32 27.48187 -78.60776 33151 ft 477 kts
2026-05-06 12:32 27.51480 -78.60350 33423 ft 476 kts
2026-05-06 12:32 27.54773 -78.59924 33694 ft 475 kts
2026-05-06 12:32 27.58057 -78.59498 33951 ft 474 kts
2026-05-06 12:33 27.61335 -78.59072 34178 ft 474 kts
2026-05-06 12:33 27.64610 -78.58646 34420 ft 473 kts
2026-05-06 12:33 27.67874 -78.58221 34679 ft 471 kts
2026-05-06 12:33 27.71095 -78.57800 34909 ft 471 kts
2026-05-06 12:34 27.74350 -78.57375 35115 ft 470 kts
2026-05-06 12:34 27.77597 -78.56954 35316 ft 470 kts
2026-05-06 12:34 27.80847 -78.56529 35529 ft 469 kts
2026-05-06 12:34 27.84087 -78.56106 35730 ft 468 kts
2026-05-06 12:35 27.87324 -78.55683 35914 ft 468 kts
2026-05-06 12:35 27.90564 -78.55259 36091 ft 467 kts
2026-05-06 12:35 27.93800 -78.54836 36280 ft 467 kts
2026-05-06 12:35 27.96991 -78.54419 36445 ft 466 kts
2026-05-06 12:36 28.00214 -78.53997 36565 ft 466 kts
2026-05-06 12:36 28.03439 -78.53574 36701 ft 466 kts
2026-05-06 12:36 28.06654 -78.53151 36933 ft 463 kts
2026-05-06 12:36 28.09850 -78.52732 37069 ft 462 kts
2026-05-06 12:37 28.16197 -78.51898 37082 ft 461 kts
2026-05-06 12:37 28.22577 -78.51061 37083 ft 461 kts
2026-05-06 12:38 28.28952 -78.50222 37081 ft 461 kts
2026-05-06 12:38 28.35354 -78.49379 37082 ft 462 kts
2026-05-06 12:39 28.41738 -78.48537 37081 ft 462 kts
2026-05-06 12:39 28.48095 -78.47697 37082 ft 462 kts
2026-05-06 12:40 28.54493 -78.46850 37099 ft 462 kts
2026-05-06 12:40 28.60873 -78.46006 37094 ft 462 kts
2026-05-06 12:41 28.67268 -78.45158 37075 ft 462 kts
2026-05-06 12:41 28.73661 -78.44308 37081 ft 462 kts
2026-05-06 12:42 28.80054 -78.43459 37083 ft 462 kts
2026-05-06 12:42 28.86405 -78.42612 37082 ft 462 kts
2026-05-06 12:43 28.92789 -78.41762 37083 ft 462 kts
2026-05-06 12:43 28.98103 -78.41054 37081 ft 462 kts
2026-05-06 12:44 29.04500 -78.40202 37081 ft 462 kts
2026-05-06 12:44 29.10895 -78.39346 37081 ft 462 kts
2026-05-06 12:45 29.17253 -78.38495 37083 ft 462 kts
2026-05-06 12:46 29.26849 -78.37208 37082 ft 462 kts
2026-05-06 12:46 29.33241 -78.36349 37083 ft 462 kts
2026-05-06 12:47 29.39628 -78.35491 37082 ft 461 kts
2026-05-06 12:47 29.45967 -78.34554 37082 ft 463 kts
2026-05-06 12:48 29.52114 -78.32078 37090 ft 473 kts 22°
2026-05-06 12:48 29.57894 -78.28512 37082 ft 475 kts 25°
2026-05-06 12:49 29.63659 -78.24765 37082 ft 475 kts 25°
2026-05-06 12:49 29.69420 -78.21038 37083 ft 475 kts 24°
2026-05-06 12:50 29.75187 -78.17337 37081 ft 475 kts 24°
2026-05-06 12:50 29.80963 -78.13637 37082 ft 474 kts 24°
2026-05-06 12:51 29.86741 -78.09933 37083 ft 474 kts 24°
2026-05-06 12:51 29.92474 -78.06250 37082 ft 474 kts 24°
2026-05-06 12:52 29.98248 -78.02536 37081 ft 474 kts 24°
2026-05-06 12:52 30.04019 -77.98821 37080 ft 474 kts 24°
2026-05-06 12:53 30.09783 -77.95102 37081 ft 474 kts 24°
2026-05-06 12:53 30.15515 -77.91398 37083 ft 474 kts 24°
2026-05-06 12:54 30.21279 -77.87669 37075 ft 474 kts 24°
2026-05-06 12:54 30.27044 -77.83935 37072 ft 474 kts 24°
2026-05-06 12:55 30.32802 -77.80202 37073 ft 474 kts 24°
2026-05-06 12:55 30.38630 -77.76683 37074 ft 469 kts 17°
2026-05-06 12:56 30.44878 -77.74887 37074 ft 458 kts
2026-05-06 12:56 30.51203 -77.74393 37073 ft 458 kts 359°
2026-05-06 12:57 30.57572 -77.74105 37073 ft 457 kts 358°
2026-05-06 12:57 30.63937 -77.73828 37072 ft 457 kts 358°
2026-05-06 12:58 30.70257 -77.73525 37081 ft 457 kts 359°
2026-05-06 12:58 30.76633 -77.73208 37082 ft 457 kts 359°
2026-05-06 12:59 30.82984 -77.72884 37082 ft 457 kts 359°
2026-05-06 12:59 30.89338 -77.72563 37081 ft 457 kts 359°
2026-05-06 13:00 30.95646 -77.72247 37085 ft 456 kts 358°
2026-05-06 13:00 31.01991 -77.71927 37092 ft 457 kts 359°
2026-05-06 13:01 31.08351 -77.71603 37092 ft 456 kts 358°
2026-05-06 13:01 31.14695 -77.71282 37101 ft 456 kts 358°
2026-05-06 13:02 31.21012 -77.70962 37102 ft 456 kts 358°
2026-05-06 13:02 31.27353 -77.70639 37094 ft 456 kts 358°
2026-05-06 13:03 31.33688 -77.70316 37084 ft 456 kts 358°
2026-05-06 13:03 31.40037 -77.69992 37091 ft 456 kts 358°
2026-05-06 13:04 31.46394 -77.69667 37083 ft 457 kts 358°
2026-05-06 13:04 31.52747 -77.69344 37094 ft 456 kts 358°
2026-05-06 13:05 31.59052 -77.69024 37091 ft 456 kts 358°
2026-05-06 13:05 31.65410 -77.68696 37084 ft 456 kts 358°
2026-05-06 13:06 31.71763 -77.68371 37098 ft 456 kts 358°
2026-05-06 13:06 31.78070 -77.68046 37102 ft 457 kts 358°
2026-05-06 13:07 31.84418 -77.67719 37094 ft 456 kts 358°
2026-05-06 13:07 31.90771 -77.67396 37086 ft 457 kts 358°
2026-05-06 13:08 31.97107 -77.67071 37097 ft 456 kts 358°
2026-05-06 13:08 32.03460 -77.66742 37092 ft 457 kts 358°
2026-05-06 13:09 32.09811 -77.66412 37082 ft 456 kts 358°
2026-05-06 13:09 32.16155 -77.66082 37083 ft 456 kts 358°
2026-05-06 13:10 32.22496 -77.65752 37081 ft 456 kts 358°
2026-05-06 13:10 32.28836 -77.65424 37103 ft 456 kts 358°
2026-05-06 13:11 32.35180 -77.65095 37094 ft 456 kts 358°
2026-05-06 13:11 32.41524 -77.64766 37094 ft 456 kts 358°
2026-05-06 13:12 32.47871 -77.64434 37094 ft 456 kts 358°
2026-05-06 13:12 32.54211 -77.64103 37097 ft 456 kts 358°
2026-05-06 13:13 32.60559 -77.63769 37084 ft 456 kts 358°
2026-05-06 13:13 32.66904 -77.63437 37090 ft 457 kts 358°
2026-05-06 13:14 32.73254 -77.63107 37075 ft 457 kts 358°
2026-05-06 13:14 32.79600 -77.62777 37056 ft 457 kts 358°
2026-05-06 13:15 32.85939 -77.62464 37034 ft 456 kts 358°
2026-05-06 13:15 32.92246 -77.62275 37005 ft 455 kts 356°
2026-05-06 13:16 32.98573 -77.62199 37010 ft 454 kts 356°
2026-05-06 13:16 33.04877 -77.62229 37007 ft 453 kts 355°
2026-05-06 13:17 33.11183 -77.62347 36937 ft 454 kts 354°
2026-05-06 13:17 33.17494 -77.62596 36896 ft 453 kts 353°
2026-05-06 13:18 33.23762 -77.63130 36963 ft 450 kts 351°
2026-05-06 13:18 33.29980 -77.63899 36983 ft 449 kts 349°
2026-05-06 13:19 33.36180 -77.64812 36912 ft 450 kts 348°
2026-05-06 13:19 33.42391 -77.65791 36873 ft 450 kts 348°
2026-05-06 13:20 33.48577 -77.66816 36946 ft 448 kts 348°
2026-05-06 13:20 33.54757 -77.67884 36956 ft 448 kts 348°
2026-05-06 13:21 33.60908 -77.68904 36893 ft 449 kts 348°
2026-05-06 13:21 33.67122 -77.69860 36865 ft 450 kts 349°
2026-05-06 13:22 33.73343 -77.70695 36900 ft 450 kts 350°
2026-05-06 13:22 33.79593 -77.71334 36908 ft 450 kts 351°
2026-05-06 13:23 33.85870 -77.71753 36886 ft 452 kts 353°
2026-05-06 13:23 33.92124 -77.71963 36853 ft 453 kts 354°
2026-05-06 13:24 33.98441 -77.71994 36856 ft 454 kts 355°
2026-05-06 13:24 34.04765 -77.71870 36869 ft 454 kts 357°
2026-05-06 13:25 34.11067 -77.71582 36872 ft 455 kts 358°
2026-05-06 13:25 34.17401 -77.71176 36867 ft 455 kts 359°